Time,TemperatureF,DewpointF,PressureIn,WindDirection,WindDirectionDegrees,WindSpeedMPH,WindSpeedGustMPH,Humidity,HourlyPrecipIn,Conditions,Clouds,dailyrainin,SoftwareType,DateUTC
2013-08-30 00:12:00,83.0,72.0,29.98,SSE,150,1.0,-999.0,70,-99.99,,,0.00,weatherlink.com 1.10,2013-08-30 07:12:00,
2013-08-30 00:28:00,82.9,72.0,29.98,SSE,150,2.0,-999.0,69,-99.99,,,0.00,weatherlink.com 1.10,2013-08-30 07:28:00,
2013-08-30 00:43:00,82.7,72.0,29.98,SSE,150,2.0,-999.0,69,-99.99,,,0.00,weatherlink.com 1.10,2013-08-30 07:43:00,
2013-08-30 00:58:00,82.7,72.0,29.98,SSE,150,2.0,-999.0,69,-99.99,,,0.00,weatherlink.com 1.10,2013-08-30 07:58:00,
2013-08-30 01:13:00,82.6,71.0,29.98,SSE,150,5.0,-999.0,69,-99.99,,,0.00,weatherlink.com 1.10,2013-08-30 08:13:00,
2013-08-30 01:28:00,82.6,71.0,29.97,SSE,150,4.0,-999.0,69,-99.99,,,0.00,weatherlink.com 1.10,2013-08-30 08:28:00,
2013-08-30 01:43:00,82.6,71.0,29.97,SSE,150,1.0,-999.0,69,-99.99,,,0.00,weatherlink.com 1.10,2013-08-30 08:43:00,
2013-08-30 01:58:00,82.6,71.0,29.96,SSE,150,5.0,-999.0,69,-99.99,,,0.00,weatherlink.com 1.10,2013-08-30 08:58:00,
2013-08-30 02:13:00,82.7,71.0,29.96,SSE,150,4.0,-999.0,68,-99.99,,,0.00,weatherlink.com 1.10,2013-08-30 09:13:00,
2013-08-30 02:28:00,82.6,71.0,29.96,SSE,150,2.0,-999.0,69,-99.99,,,0.00,weatherlink.com 1.10,2013-08-30 09:28:00,
2013-08-30 02:43:00,82.0,73.0,29.96,SSE,150,0.0,-999.0,75,-99.99,,,0.00,weatherlink.com 1.10,2013-08-30 09:43:00,
2013-08-30 02:58:00,81.4,73.0,29.96,SSE,150,2.0,-999.0,75,-99.99,,,0.00,weatherlink.com 1.10,2013-08-30 09:58:00,
2013-08-30 03:13:00,81.4,73.0,29.96,SSE,150,0.0,-999.0,75,-99.99,,,0.00,weatherlink.com 1.10,2013-08-30 10:13:00,
2013-08-30 03:28:00,81.1,73.0,29.96,SSE,150,0.0,-999.0,76,-99.99,,,0.00,weatherlink.com 1.10,2013-08-30 10:28:00,
2013-08-30 03:43:00,80.9,72.0,29.96,SSE,150,0.0,-999.0,75,-99.99,,,0.00,weatherlink.com 1.10,2013-08-30 10:43:00,
2013-08-30 03:58:00,80.8,73.0,29.96,SSE,150,0.0,-999.0,76,-99.99,,,0.00,weatherlink.com 1.10,2013-08-30 10:58:00,
2013-08-30 04:13:00,80.8,73.0,29.96,SSE,150,0.0,-999.0,76,-99.99,,,0.00,weatherlink.com 1.10,2013-08-30 11:13:00,
2013-08-30 04:28:00,80.8,72.0,29.96,SSE,150,0.0,-999.0,75,-99.99,,,0.00,weatherlink.com 1.10,2013-08-30 11:28:00,
2013-08-30 04:43:00,80.9,72.0,29.96,SSE,150,0.0,-999.0,74,-99.99,,,0.00,weatherlink.com 1.10,2013-08-30 11:43:00,
2013-08-30 04:58:00,80.9,72.0,29.96,SSE,150,0.0,-999.0,75,-99.99,,,0.00,weatherlink.com 1.10,2013-08-30 11:58:00,
2013-08-30 05:13:00,80.7,73.0,29.96,SSE,150,0.0,-999.0,76,-99.99,,,0.00,weatherlink.com 1.10,2013-08-30 12:13:00,
2013-08-30 05:28:00,80.4,73.0,29.97,SSE,150,0.0,-999.0,77,-99.99,,,0.00,weatherlink.com 1.10,2013-08-30 12:28:00,
2013-08-30 05:43:00,80.3,73.0,29.97,SSE,150,0.0,-999.0,77,-99.99,,,0.00,weatherlink.com 1.10,2013-08-30 12:43:00,
2013-08-30 05:58:00,80.4,73.0,29.97,SSE,150,0.0,-999.0,78,-99.99,,,0.00,weatherlink.com 1.10,2013-08-30 12:58:00,
2013-08-30 06:13:00,80.5,73.0,29.98,SSE,150,0.0,-999.0,78,-99.99,,,0.00,weatherlink.com 1.10,2013-08-30 13:13:00,
2013-08-30 06:28:00,80.5,73.0,29.98,SSE,150,0.0,-999.0,77,-99.99,,,0.00,weatherlink.com 1.10,2013-08-30 13:28:00,
2013-08-30 06:43:00,80.9,73.0,29.98,SSE,150,0.0,-999.0,77,-99.99,,,0.00,weatherlink.com 1.10,2013-08-30 13:43:00,
2013-08-30 06:58:00,81.5,73.0,29.98,SSE,150,0.0,-999.0,75,-99.99,,,0.00,weatherlink.com 1.10,2013-08-30 13:58:00,
2013-08-30 07:13:00,82.7,73.0,29.98,SSE,150,0.0,-999.0,72,-99.99,,,0.00,weatherlink.com 1.10,2013-08-30 14:13:00,
2013-08-30 07:28:00,83.8,73.0,29.98,SSE,150,0.0,-999.0,71,-99.99,,,0.00,weatherlink.com 1.10,2013-08-30 14:28:00,
2013-08-30 07:43:00,86.1,73.0,29.99,SSE,150,2.0,-999.0,66,-99.99,,,0.00,weatherlink.com 1.10,2013-08-30 14:43:00,
2013-08-30 07:58:00,86.9,73.0,29.99,SSE,150,0.0,-999.0,63,-99.99,,,0.00,weatherlink.com 1.10,2013-08-30 14:58:00,
2013-08-30 08:13:00,88.2,73.0,29.99,SSE,150,2.0,-999.0,60,-99.99,,,0.00,weatherlink.com 1.10,2013-08-30 15:13:00,
2013-08-30 08:28:00,88.5,71.0,29.99,SE,138,1.0,-999.0,57,-99.99,,,0.00,weatherlink.com 1.10,2013-08-30 15:28:00,
2013-08-30 08:43:00,88.4,72.0,29.99,NNW,346,1.0,-999.0,58,-99.99,,,0.00,weatherlink.com 1.10,2013-08-30 15:43:00,
2013-08-30 08:58:00,89.0,71.0,29.99,NNW,342,0.0,-999.0,55,-99.99,,,0.00,weatherlink.com 1.10,2013-08-30 15:58:00,
2013-08-30 09:13:00,89.3,71.0,30.00,NNW,339,4.0,-999.0,55,-99.99,,,0.00,weatherlink.com 1.10,2013-08-30 16:13:00,
2013-08-30 09:28:00,89.0,71.0,29.99,NNW,339,0.0,-999.0,55,-99.99,,,0.00,weatherlink.com 1.10,2013-08-30 16:28:00,
2013-08-30 09:43:00,89.6,71.0,30.00,NNW,339,0.0,-999.0,54,-99.99,,,0.00,weatherlink.com 1.10,2013-08-30 16:43:00,
2013-08-30 09:58:00,90.0,71.0,30.00,NNW,332,0.0,-999.0,54,-99.99,,,0.00,weatherlink.com 1.10,2013-08-30 16:58:00,
2013-08-30 10:13:00,90.8,70.0,30.00,NNW,333,3.0,-999.0,51,-99.99,,,0.00,weatherlink.com 1.10,2013-08-30 17:13:00,
2013-08-30 10:28:00,90.3,71.0,29.99,NNW,329,2.0,-999.0,53,-99.99,,,0.00,weatherlink.com 1.10,2013-08-30 17:28:00,
2013-08-30 10:43:00,91.2,71.0,29.99,NNW,329,2.0,-999.0,51,-99.99,,,0.00,weatherlink.com 1.10,2013-08-30 17:43:00,
2013-08-30 10:58:00,90.9,70.0,29.99,NNW,329,0.0,-999.0,50,-99.99,,,0.00,weatherlink.com 1.10,2013-08-30 17:58:00,
2013-08-30 11:14:00,91.1,70.0,29.99,NW,311,0.0,-999.0,50,-99.99,,,0.00,weatherlink.com 1.10,2013-08-30 18:14:00,
2013-08-30 11:29:00,92.0,70.0,29.98,NW,311,1.0,-999.0,48,-99.99,,,0.00,weatherlink.com 1.10,2013-08-30 18:29:00,
2013-08-30 11:44:00,93.1,70.0,29.98,NW,311,1.0,-999.0,47,-99.99,,,0.00,weatherlink.com 1.10,2013-08-30 18:44:00,
2013-08-30 11:59:00,93.4,70.0,29.97,WNW,292,0.0,-999.0,46,-99.99,,,0.00,weatherlink.com 1.10,2013-08-30 18:59:00,
2013-08-30 12:14:00,93.8,69.0,29.96,NW,312,5.0,-999.0,45,-99.99,,,0.00,weatherlink.com 1.10,2013-08-30 19:14:00,
2013-08-30 12:29:00,93.6,70.0,29.96,WNW,292,4.0,-999.0,46,-99.99,,,0.00,weatherlink.com 1.10,2013-08-30 19:29:00,
2013-08-30 12:44:00,94.3,70.0,29.95,West,279,2.0,-999.0,45,-99.99,,,0.00,weatherlink.com 1.10,2013-08-30 19:44:00,
2013-08-30 12:59:00,94.5,70.0,29.95,WNW,290,3.0,-999.0,45,-99.99,,,0.00,weatherlink.com 1.10,2013-08-30 19:59:00,
2013-08-30 13:14:00,94.9,70.0,29.94,SW,234,5.0,-999.0,45,-99.99,,,0.00,weatherlink.com 1.10,2013-08-30 20:14:00,
2013-08-30 13:29:00,94.7,70.0,29.93,SW,219,7.0,-999.0,44,-99.99,,,0.00,weatherlink.com 1.10,2013-08-30 20:29:00,
2013-08-30 13:44:00,95.3,69.0,29.93,SSW,210,1.0,-999.0,43,-99.99,,,0.00,weatherlink.com 1.10,2013-08-30 20:44:00,
2013-08-30 13:59:00,96.2,70.0,29.93,SW,228,6.0,-999.0,42,-99.99,,,0.00,weatherlink.com 1.10,2013-08-30 20:59:00,
2013-08-30 14:14:00,95.4,70.0,29.91,SW,234,1.0,-999.0,44,-99.99,,,0.00,weatherlink.com 1.10,2013-08-30 21:14:00,
2013-08-30 14:29:00,96.2,70.0,29.90,WSW,238,4.0,-999.0,43,-99.99,,,0.00,weatherlink.com 1.10,2013-08-30 21:29:00,
2013-08-30 14:43:00,98.0,71.0,29.89,SW,235,4.0,-999.0,42,-99.99,,,0.00,weatherlink.com 1.10,2013-08-30 21:43:00,
2013-08-30 14:58:00,98.7,70.0,29.89,WNW,294,5.0,-999.0,39,-99.99,,,0.00,weatherlink.com 1.10,2013-08-30 21:58:00,
2013-08-30 15:13:00,97.6,69.0,29.89,SSW,207,4.0,-999.0,39,-99.99,,,0.00,weatherlink.com 1.10,2013-08-30 22:13:00,
2013-08-30 15:28:00,96.9,68.0,29.88,SW,221,4.0,-999.0,39,-99.99,,,0.00,weatherlink.com 1.10,2013-08-30 22:28:00,
2013-08-30 15:43:00,97.3,68.0,29.88,SW,217,3.0,-999.0,39,-99.99,,,0.00,weatherlink.com 1.10,2013-08-30 22:43:00,
2013-08-30 15:58:00,96.7,69.0,29.88,WSW,254,5.0,-999.0,41,-99.99,,,0.00,weatherlink.com 1.10,2013-08-30 22:58:00,
2013-08-30 16:13:00,96.1,69.0,29.88,West,268,6.0,-999.0,42,-99.99,,,0.00,weatherlink.com 1.10,2013-08-30 23:13:00,
2013-08-30 16:28:00,95.1,69.0,29.88,WSW,246,1.0,-999.0,43,-99.99,,,0.00,weatherlink.com 1.10,2013-08-30 23:28:00,
2013-08-30 16:43:00,94.7,69.0,29.88,WSW,252,4.0,-999.0,43,-99.99,,,0.00,weatherlink.com 1.10,2013-08-30 23:43:00,
2013-08-30 16:58:00,94.7,69.0,29.87,SW,221,2.0,-999.0,43,-99.99,,,0.00,weatherlink.com 1.10,2013-08-30 23:58:00,
2013-08-30 17:13:00,96.2,69.0,29.87,WSW,257,4.0,-999.0,41,-99.99,,,0.00,weatherlink.com 1.10,2013-08-31 00:13:00,
2013-08-30 17:28:00,95.5,68.0,29.87,SSW,193,4.0,-999.0,41,-99.99,,,0.00,weatherlink.com 1.10,2013-08-31 00:28:00,
2013-08-30 17:43:00,95.2,69.0,29.87,SW,217,0.0,-999.0,42,-99.99,,,0.00,weatherlink.com 1.10,2013-08-31 00:43:00,
2013-08-30 17:58:00,94.1,68.0,29.87,SW,215,0.0,-999.0,43,-99.99,,,0.00,weatherlink.com 1.10,2013-08-31 00:58:00,
2013-08-30 18:13:00,93.6,69.0,29.87,SW,228,3.0,-999.0,44,-99.99,,,0.00,weatherlink.com 1.10,2013-08-31 01:13:00,
2013-08-30 18:28:00,93.0,69.0,29.87,WSW,252,2.0,-999.0,45,-99.99,,,0.00,weatherlink.com 1.10,2013-08-31 01:28:00,
2013-08-30 18:43:00,92.8,69.0,29.88,WSW,252,2.0,-999.0,45,-99.99,,,0.00,weatherlink.com 1.10,2013-08-31 01:43:00,
2013-08-30 18:58:00,92.6,68.0,29.88,WSW,252,0.0,-999.0,45,-99.99,,,0.00,weatherlink.com 1.10,2013-08-31 01:58:00,
2013-08-30 19:13:00,92.3,68.0,29.88,WSW,250,2.0,-999.0,45,-99.99,,,0.00,weatherlink.com 1.10,2013-08-31 02:13:00,
2013-08-30 19:28:00,92.0,68.0,29.88,WSW,250,1.0,-999.0,46,-99.99,,,0.00,weatherlink.com 1.10,2013-08-31 02:28:00,
2013-08-30 19:43:00,91.7,69.0,29.88,WSW,250,0.0,-999.0,47,-99.99,,,0.00,weatherlink.com 1.10,2013-08-31 02:43:00,
2013-08-30 19:58:00,91.5,69.0,29.88,WSW,247,3.0,-999.0,47,-99.99,,,0.00,weatherlink.com 1.10,2013-08-31 02:58:00,
2013-08-30 20:13:00,91.5,67.0,29.88,South,173,5.0,-999.0,45,-99.99,,,0.00,weatherlink.com 1.10,2013-08-31 03:13:00,
2013-08-30 20:28:00,91.3,67.0,29.89,South,174,2.0,-999.0,45,-99.99,,,0.00,weatherlink.com 1.10,2013-08-31 03:28:00,
2013-08-30 20:43:00,91.1,67.0,29.89,South,173,2.0,-999.0,45,-99.99,,,0.00,weatherlink.com 1.10,2013-08-31 03:43:00,
2013-08-30 20:58:00,91.1,67.0,29.89,South,175,4.0,-999.0,45,-99.99,,,0.00,weatherlink.com 1.10,2013-08-31 03:58:00,
2013-08-30 21:13:00,90.9,67.0,29.89,South,176,5.0,-999.0,45,-99.99,,,0.00,weatherlink.com 1.10,2013-08-31 04:13:00,
2013-08-30 21:28:00,90.8,67.0,29.90,South,176,1.0,-999.0,46,-99.99,,,0.00,weatherlink.com 1.10,2013-08-31 04:28:00,
2013-08-30 21:43:00,90.8,67.0,29.90,SSE,165,1.0,-999.0,45,-99.99,,,0.00,weatherlink.com 1.10,2013-08-31 04:43:00,
2013-08-30 21:58:00,90.4,68.0,29.90,SSE,167,1.0,-999.0,47,-99.99,,,0.00,weatherlink.com 1.10,2013-08-31 04:58:00,
2013-08-30 22:13:00,90.0,68.0,29.90,SSE,167,4.0,-999.0,48,-99.99,,,0.00,weatherlink.com 1.10,2013-08-31 05:13:00,
2013-08-30 22:29:00,89.8,68.0,29.90,SSE,167,5.0,-999.0,49,-99.99,,,0.00,weatherlink.com 1.10,2013-08-31 05:29:00,
2013-08-30 22:44:00,89.7,67.0,29.90,SSE,167,2.0,-999.0,48,-99.99,,,0.00,weatherlink.com 1.10,2013-08-31 05:44:00,
2013-08-30 22:59:00,89.7,68.0,29.89,SSE,167,6.0,-999.0,49,-99.99,,,0.00,weatherlink.com 1.10,2013-08-31 05:59:00,
2013-08-30 23:14:00,89.6,68.0,29.89,SSE,167,1.0,-999.0,49,-99.99,,,0.00,weatherlink.com 1.10,2013-08-31 06:14:00,
2013-08-30 23:29:00,89.2,69.0,29.89,SSE,167,4.0,-999.0,51,-99.99,,,0.00,weatherlink.com 1.10,2013-08-31 06:29:00,
2013-08-30 23:44:00,88.5,69.0,29.89,SSE,167,2.0,-999.0,52,-99.99,,,0.00,weatherlink.com 1.10,2013-08-31 06:44:00,
2013-08-30 23:59:00,88.6,69.0,29.89,SSE,167,0.0,-999.0,53,-99.99,,,0.00,weatherlink.com 1.10,2013-08-31 06:59:00,